When you browse on this site, cookies collect data to enhance your experience and personalize the content and advertising you see.
Visit our Privacy Policy to learn more. By continuing to use the site, you agree to this use of cookies and data.
  • In Österreich
  • Länderverzeichnis
  • Für 7 Tage
  • Wassertemperatur
  • Wetterkarte
  • News
  • Widgets
  • user-avatar
    Anmelden

    Stündliche Wetter Abcha

    Heute, 5 April, Sonntag

    Zeit Temperatur Niederschläge Wind Luftdruck Luftfeuchtigkeit
    00:00 +25°C° 0 mm 1 m/S 645 mmHg 59%
    01:00 +23°C° 0 mm 0 m/S 644 mmHg 59%
    02:00 +22°C° 0 mm 0 m/S 644 mmHg 60%
    03:00 +22°C° 0 mm 0 m/S 643 mmHg 63%
    04:00 +22°C° 0 mm 0 m/S 643 mmHg 64%
    05:00 +21°C° 0 mm 0 m/S 644 mmHg 65%
    06:00 +21°C° 0 mm 0 m/S 644 mmHg 66%
    07:00 +24°C° 0 mm 1 m/S 645 mmHg 60%
    08:00 +26°C° 0 mm 1 m/S 645 mmHg 54%
    09:00 +27°C° 0 mm 2 m/S 646 mmHg 46%
    10:00 +28°C° 0 mm 3 m/S 646 mmHg 43%
    11:00 +29°C° 0 mm 3 m/S 646 mmHg 39%
    12:00 +30°C° 0 mm 4 m/S 647 mmHg 36%
    13:00 +30°C° 0 mm 4 m/S 646 mmHg 40%
    14:00 +29°C° 0 mm 4 m/S 645 mmHg 44%
    15:00 +29°C° 0 mm 4 m/S 645 mmHg 47%
    16:00 +28°C° 0.5 mm 3 m/S 644 mmHg 52%
    17:00 +27°C° 0.5 mm 3 m/S 644 mmHg 57%
    18:00 +27°C° 0.5 mm 2 m/S 644 mmHg 62%
    19:00 +26°C° 0.2 mm 1 m/S 644 mmHg 61%
    20:00 +26°C° 0.2 mm 1 m/S 645 mmHg 60%
    21:00 +24°C° 0.2 mm 0 m/S 645 mmHg 60%
    22:00 +26°C° 0 mm 1 m/S 645 mmHg 59%
    23:00 +26°C° 0 mm 1 m/S 645 mmHg 58%

    Morgen, 6 April, Montag

    Zeit Temperatur Niederschläge Wind Luftdruck Luftfeuchtigkeit
    00:00 +26°C° 0 mm 1 m/S 645 mmHg 58%
    01:00 +25°C° 0 mm 1 m/S 645 mmHg 58%
    02:00 +25°C° 0 mm 1 m/S 644 mmHg 57%
    03:00 +25°C° 0 mm 1 m/S 644 mmHg 57%
    04:00 +24°C° 0 mm 1 m/S 644 mmHg 56%
    05:00 +24°C° 0 mm 1 m/S 644 mmHg 55%
    06:00 +24°C° 0 mm 1 m/S 644 mmHg 55%
    07:00 +25°C° 0 mm 1 m/S 645 mmHg 49%
    08:00 +26°C° 0 mm 1 m/S 646 mmHg 44%
    09:00 +28°C° 0 mm 2 m/S 647 mmHg 38%
    10:00 +29°C° 0 mm 2 m/S 647 mmHg 35%
    11:00 +30°C° 0 mm 3 m/S 647 mmHg 32%
    12:00 +32°C° 0 mm 4 m/S 647 mmHg 29%
    13:00 +32°C° 0 mm 4 m/S 646 mmHg 31%
    14:00 +32°C° 0 mm 4 m/S 646 mmHg 32%
    15:00 +31°C° 0 mm 3 m/S 645 mmHg 34%
    16:00 +30°C° 0 mm 3 m/S 645 mmHg 40%
    17:00 +28°C° 0 mm 3 m/S 644 mmHg 46%
    18:00 +27°C° 0 mm 3 m/S 644 mmHg 52%
    19:00 +27°C° 0.1 mm 2 m/S 645 mmHg 54%
    20:00 +27°C° 0.1 mm 2 m/S 645 mmHg 55%
    21:00 +26°C° 0.1 mm 1 m/S 646 mmHg 56%
    22:00 +26°C° 0 mm 1 m/S 645 mmHg 56%
    23:00 +26°C° 0 mm 1 m/S 645 mmHg 56%

    übermorgen, 7 April, Dienstag

    Zeit Temperatur Niederschläge Wind Luftdruck Luftfeuchtigkeit
    00:00 +26°C° 0 mm 1 m/S 645 mmHg 55%
    01:00 +26°C° 0 mm 1 m/S 645 mmHg 55%
    02:00 +25°C° 0 mm 1 m/S 644 mmHg 55%
    03:00 +25°C° 0 mm 1 m/S 644 mmHg 56%
    04:00 +25°C° 0 mm 1 m/S 644 mmHg 54%
    05:00 +24°C° 0 mm 1 m/S 644 mmHg 52%
    06:00 +24°C° 0 mm 1 m/S 644 mmHg 50%
    07:00 +25°C° 0 mm 1 m/S 644 mmHg 43%
    08:00 +27°C° 0 mm 2 m/S 645 mmHg 37%
    09:00 +28°C° 0 mm 2 m/S 646 mmHg 31%
    10:00 +29°C° 0 mm 2 m/S 646 mmHg 28%
    11:00 +30°C° 0 mm 3 m/S 646 mmHg 25%
    12:00 +31°C° 0 mm 3 m/S 646 mmHg 23%
    13:00 +31°C° 0 mm 3 m/S 645 mmHg 25%
    14:00 +32°C° 0 mm 4 m/S 645 mmHg 28%
    15:00 +32°C° 0 mm 4 m/S 644 mmHg 31%
    16:00 +30°C° 0 mm 4 m/S 644 mmHg 37%
    17:00 +29°C° 0 mm 3 m/S 644 mmHg 43%
    18:00 +27°C° 0 mm 3 m/S 643 mmHg 49%
    19:00 +27°C° 0.1 mm 2 m/S 644 mmHg 51%
    20:00 +27°C° 0.1 mm 1 m/S 644 mmHg 52%
    21:00 +26°C° 0.1 mm 1 m/S 644 mmHg 54%
    22:00 +26°C° 0 mm 1 m/S 644 mmHg 53%
    23:00 +24°C° 0 mm 0 m/S 644 mmHg 53%

    8 April, Mittwoch

    Zeit Temperatur Niederschläge Wind Luftdruck Luftfeuchtigkeit
    00:00 +24°C° 0 mm 0 m/S 644 mmHg 53%
    01:00 +24°C° 0 mm 0 m/S 644 mmHg 54%
    02:00 +23°C° 0 mm 0 m/S 643 mmHg 55%
    03:00 +23°C° 0 mm 0 m/S 643 mmHg 55%
    04:00 +22°C° 0 mm 0 m/S 643 mmHg 53%
    05:00 +22°C° 0 mm 0 m/S 643 mmHg 51%
    06:00 +22°C° 0 mm 0 m/S 643 mmHg 49%
    07:00 +25°C° 0 mm 1 m/S 644 mmHg 43%
    08:00 +27°C° 0 mm 1 m/S 644 mmHg 36%
    09:00 +28°C° 0 mm 2 m/S 645 mmHg 30%
    10:00 +30°C° 0 mm 2 m/S 645 mmHg 27%
    11:00 +31°C° 0 mm 3 m/S 645 mmHg 25%
    12:00 +33°C° 0 mm 3 m/S 645 mmHg 22%
    13:00 +33°C° 0 mm 4 m/S 645 mmHg 26%
    14:00 +32°C° 0 mm 4 m/S 644 mmHg 29%
    15:00 +32°C° 0 mm 4 m/S 643 mmHg 33%
    16:00 +30°C° 0 mm 4 m/S 643 mmHg 41%
    17:00 +28°C° 0 mm 3 m/S 643 mmHg 49%
    18:00 +27°C° 0 mm 3 m/S 642 mmHg 58%
    19:00 +27°C° 0.1 mm 2 m/S 643 mmHg 59%
    20:00 +26°C° 0.1 mm 1 m/S 643 mmHg 60%
    21:00 +26°C° 0.1 mm 1 m/S 644 mmHg 61%
    22:00 +26°C° 0 mm 1 m/S 643 mmHg 60%
    23:00 +26°C° 0 mm 1 m/S 643 mmHg 60%

    9 April, Donnerstag

    Zeit Temperatur Niederschläge Wind Luftdruck Luftfeuchtigkeit
    00:00 +26°C° 0 mm 1 m/S 643 mmHg 59%
    01:00 +25°C° 0 mm 1 m/S 643 mmHg 60%
    02:00 +23°C° 0 mm 0 m/S 642 mmHg 61%
    03:00 +22°C° 0 mm 0 m/S 642 mmHg 61%
    04:00 +22°C° 0 mm 0 m/S 642 mmHg 62%
    05:00 +22°C° 0 mm 0 m/S 642 mmHg 62%
    06:00 +22°C° 0 mm 0 m/S 642 mmHg 62%
    07:00 +25°C° 0 mm 1 m/S 643 mmHg 52%
    08:00 +27°C° 0 mm 1 m/S 644 mmHg 43%
    09:00 +29°C° 0 mm 2 m/S 644 mmHg 33%
    10:00 +30°C° 0 mm 2 m/S 644 mmHg 31%
    11:00 +30°C° 0 mm 3 m/S 644 mmHg 28%
    12:00 +32°C° 0 mm 4 m/S 644 mmHg 25%
    13:00 +32°C° 0 mm 4 m/S 644 mmHg 30%
    14:00 +32°C° 0 mm 4 m/S 643 mmHg 34%
    15:00 +30°C° 0 mm 4 m/S 643 mmHg 38%
    16:00 +29°C° 0 mm 4 m/S 642 mmHg 44%
    17:00 +28°C° 0 mm 3 m/S 642 mmHg 49%
    18:00 +27°C° 0 mm 3 m/S 642 mmHg 54%
    19:00 +27°C° 0 mm 2 m/S 642 mmHg 56%
    20:00 +26°C° 0 mm 2 m/S 642 mmHg 58%
    21:00 +26°C° 0 mm 1 m/S 643 mmHg 59%
    22:00 +26°C° 0 mm 1 m/S 642 mmHg 58%
    23:00 +26°C° 0 mm 1 m/S 642 mmHg 57%

    10 April, Freitag

    Zeit Temperatur Niederschläge Wind Luftdruck Luftfeuchtigkeit
    00:00 +24°C° 0 mm 0 m/S 642 mmHg 56%
    01:00 +23°C° 0 mm 0 m/S 642 mmHg 58%
    02:00 +23°C° 0 mm 0 m/S 641 mmHg 59%
    03:00 +22°C° 0 mm 0 m/S 641 mmHg 61%
    04:00 +22°C° 0 mm 0 m/S 641 mmHg 61%
    05:00 +22°C° 0 mm 0 m/S 641 mmHg 61%
    06:00 +23°C° 0 mm 1 m/S 641 mmHg 61%
    07:00 +25°C° 0 mm 1 m/S 642 mmHg 52%
    08:00 +26°C° 0 mm 2 m/S 643 mmHg 43%
    09:00 +28°C° 0 mm 3 m/S 644 mmHg 34%
    10:00 +29°C° 0 mm 3 m/S 644 mmHg 33%
    11:00 +29°C° 0 mm 4 m/S 644 mmHg 32%
    12:00 +30°C° 0 mm 4 m/S 644 mmHg 31%
    13:00 +30°C° 0 mm 4 m/S 643 mmHg 31%
    14:00 +30°C° 0 mm 4 m/S 643 mmHg 32%
    15:00 +30°C° 0 mm 4 m/S 642 mmHg 32%
    16:00 +29°C° 0 mm 4 m/S 642 mmHg 36%
    17:00 +29°C° 0 mm 3 m/S 642 mmHg 40%
    18:00 +28°C° 0 mm 3 m/S 641 mmHg 44%
    19:00 +27°C° 0 mm 2 m/S 642 mmHg 46%
    20:00 +27°C° 0 mm 1 m/S 642 mmHg 47%
    21:00 +27°C° 0 mm 1 m/S 642 mmHg 49%
    22:00 +26°C° 0 mm 1 m/S 642 mmHg 50%
    23:00 +26°C° 0 mm 1 m/S 642 mmHg 50%
    Mehr zeigen